DL7MAP-13 Weather Reports


Display with metric or nautical units.
time (UTC)temp
F
wind
direction
speed
MPH
gust
MPH
rain 1hr
in
rain 24hr
in
rain mn
in
humidity
%
barometer
mb
20260503174306 80 0.0 0.0 0.00 0.00 0.00 30 1004.1
20260503172807 81 0.0 0.0 0.00 0.00 0.00 28 1004.4
20260503171307 81 0.0 0.0 0.00 0.00 0.00 27 1005.2
20260503131306 85 0.0 0.0 0.00 0.00 0.00 26 1006.3
20260503081306 73 0.0 0.0 0.00 0.00 0.00 43 1008.3
20260503072807 69 0.0 0.0 0.00 0.00 0.00 47 1008.3
20260503071306 67 0.0 0.0 0.00 0.00 0.00 47 1008.8
20260503054306 61 0.0 0.0 0.00 0.00 0.00 54 1008.6
20260503052806 61 0.0 0.0 0.00 0.00 0.00 57 1009.1
20260503051307 58 0.0 0.0 0.00 0.00 0.00 62 1008.7
20260503045806 56 0.0 0.0 0.00 0.00 0.00 68 1008.6
20260503044307 53 0.0 0.0 0.00 0.00 0.00 71 1008.2
20260503042807 51 0.0 0.0 0.00 0.00 0.00 74 1008.8
20260503041306 50 0.0 0.0 0.00 0.00 0.00 75 1008.6
20260503035807 49 0.0 0.0 0.00 0.00 0.00 76 1008.4
20260503034307 50 0.0 0.0 0.00 0.00 0.00 74 1008.5
20260503032807 51 0.0 0.0 0.00 0.00 0.00 73 1008.4
20260503031306 52 0.0 0.0 0.00 0.00 0.00 72 1008.6
20260503025807 52 0.0 0.0 0.00 0.00 0.00 71 1008.5
20260503024306 52 0.0 0.0 0.00 0.00 0.00 73 1008.6
20260503022806 51 0.0 0.0 0.00 0.00 0.00 73 1008.7
20260503021307 51 0.0 0.0 0.00 0.00 0.00 73 1008.8
20260503015806 51 0.0 0.0 0.00 0.00 0.00 74 1008.9
20260503014307 52 0.0 0.0 0.00 0.00 0.00 72 1008.8
20260503012806 52 0.0 0.0 0.00 0.00 0.00 70 1008.5
20260503011306 52 0.0 0.0 0.00 0.00 0.00 70 1009.1
20260503005807 53 0.0 0.0 0.00 0.00 0.00 68 1009.1
20260503004306 54 0.0 0.0 0.00 0.00 0.00 68 1009.2
20260503002806 54 0.0 0.0 0.00 0.00 0.00 69 1009.2
20260503001306 54 0.0 0.0 0.00 0.00 0.00 67 1009.3
20260502235806 55 0.0 0.0 0.00 0.00 0.00 65 1009.4
20260502234306 56 0.0 0.0 0.00 0.00 0.00 64 1009.7
20260502232807 56 0.0 0.0 0.00 0.00 0.00 65 1009.6
20260502231306 55 0.0 0.0 0.00 0.00 0.00 67 1009.8
20260502225806 56 0.0 0.0 0.00 0.00 0.00 64 1010.0
20260502224306 56 0.0 0.0 0.00 0.00 0.00 65 1010.0
20260502222807 56 0.0 0.0 0.00 0.00 0.00 65 1010.1
20260502221306 57 0.0 0.0 0.00 0.00 0.00 63 1010.2
20260502215806 57 0.0 0.0 0.00 0.00 0.00 61 1010.2
20260502214306 60 0.0 0.0 0.00 0.00 0.00 56 1010.3
20260502212807 60 0.0 0.0 0.00 0.00 0.00 55 1010.4
20260502211307 60 0.0 0.0 0.00 0.00 0.00 54 1010.5
20260502205806 62 0.0 0.0 0.00 0.00 0.00 51 1010.7
20260502204306 64 0.0 0.0 0.00 0.00 0.00 47 1010.7
20260502202807 64 0.0 0.0 0.00 0.00 0.00 46 1010.2
20260502201306 65 0.0 0.0 0.00 0.00 0.00 45 1010.9
20260502195806 66 0.0 0.0 0.00 0.00 0.00 43 1011.0
20260502194307 68 0.0 0.0 0.00 0.00 0.00 40 1010.8
20260502192806 70 0.0 0.0 0.00 0.00 0.00 37 1011.1
20260502191307 72 0.0 0.0 0.00 0.00 0.00 34 1011.3
20260502185807 73 0.0 0.0 0.00 0.00 0.00 33 1010.9
20260502184307 73 0.0 0.0 0.00 0.00 0.00 32 1011.0
20260502182807 74 0.0 0.0 0.00 0.00 0.00 31 1010.5
20260502181306 75 0.0 0.0 0.00 0.00 0.00 30 1011.1